Volver al catálogo

OPS 4682 DEB

ActivoPO
NORAD 38369·DEBRIS·🇺🇸 United States

Lanzado Apr 3, 1965 desde Vandenberg Space Force Base

Loading…

Próximos Pases (próximas 24 horas)

TLE

ActualizadoSource: Space-Track

Época: Sep 14, 2026, 13:16 UTC

1 38369U 65027BW  26257.55280299  .00000062  00000-0  18529-3 0  9997
2 38369  90.2450   8.3059 0031360 164.9003 195.3062 12.98492199564625

Sigue OPS 4682 DEB en tiempo real con AllMySat

Download on the App Store